User: anonymous   Login
Location: ??????
(55.6361°N, 38.0803°E)
Time: 00:39:32
(UTC+00:00)
Language:

Meteor 1-5 Rocket - Orbit

View from above orbital plane
View from above orbital plane
View from above satellite
View from above satellite

Ground track
Ground track

The orbit data is extracted from the following two-line orbital elements,

1  4420U 70047B   20188.42102675  .00000051  00000-0  20815-4 0  9990
2  4420  81.2307 322.2437 0086511 317.4909  41.9585 14.12078359575896
Epoch (UTC): 06 July 2020 10:06:16
Eccentricity: 0.0086511
inclination: 81.2307°
perigee height: 790 km
apogee height: 915 km
right ascension of ascending node: 322.2437°
argument of perigee: 317.4909°
revolutions per day: 14.12078359
mean anomaly at epoch: 41.9585°
orbit number at epoch: 57589

The dashed part of the orbit path shows where the satellite is in the earth's shadow,  

DLR